Weather History for St. Paul, MN

Change the Weather History Date:

Monday, December 3, 2012

  Actual Average Record
Temperature  
Mean Temperature 47 °F -  
Max Temperature 55 °F 34 °F 59 °F (1998)
Min Temperature 39 °F 20 °F 3 °F (2007)
Degree Days  
Heating Degree Days 18    
Moisture  
Dew Point 46 °F    
Average Humidity 85    
Maximum Humidity 100    
Minimum Humidity 53    
Precipitation  
Precipitation 0.01 in - - ()
Sea Level Pressure  
Sea Level Pressure 29.67 in    
Wind  
Wind Speed 12 mph (SSW)    
Max Wind Speed 21 mph    
Max Gust Speed 26 mph    
Visibility 5 miles    
Events Rain    
Averages and records for this station are not official NWS values.
T = Trace of Precipitation, MM = Missing Value Source: NWS Daily Summary

Daily Weather History Graph

Daily Weather History Graph

Search for Another Location

Airport:

Trip Planner

Search our weather history database for the weather conditions in past years. The results will help you decide how hot, cold, wet, or windy it might be!

Date:

Astronomy

Dec. 03, 2012 Rise Set
Actual Time 7:32 AM CST 4:31 PM CST
Civil Twilight 6:59 AM CST 5:04 PM CST
Nautical Twilight 6:22 AM CST 5:41 PM CST
Astronomical Twilight 5:47 AM CST 6:16 PM CST
Moon 9:26 PM CST (12/3) 10:50 AM CST (12/3)
Length of Visible Light 10h 05m
Length of Day
8h 58m
Waning Gibbous, 78% of the Moon is Illuminated
Dec 3
Waning Gibbous
Dec 6
Last Quarter
Dec 13
New
Dec 19
First Quarter
Dec 28
Full

Hourly Weather History & Observations

Time (CST) Temp. Windchill Dew Point Humidity Pressure Visibility Wind Dir Wind Speed Gust Speed Precip Events Conditions
12:53 AM 41.0 °F 34.7 °F 37.9 °F 89% 29.81 in 5.0 mi SE 10.4 mph - N/A   Mostly Cloudy
1:30 AM 42.8 °F 35.4 °F 39.2 °F 87% 29.78 in 4.0 mi SE 15.0 mph - N/A   Overcast
1:53 AM 44.1 °F 37.7 °F 41.0 °F 89% 29.79 in 4.0 mi SE 12.7 mph - N/A   Overcast
2:53 AM 45.0 °F 38.2 °F 43.0 °F 93% 29.77 in 4.0 mi SE 15.0 mph - N/A   Overcast
3:53 AM 46.0 °F 40.6 °F 43.0 °F 89% 29.73 in 5.0 mi SSE 11.5 mph 23.0 mph N/A   Overcast
4:23 AM 46.4 °F 39.8 °F 42.8 °F 87% 29.71 in 5.0 mi SSE 16.1 mph 24.2 mph N/A   Overcast
4:53 AM 46.9 °F - 44.1 °F 90% 29.70 in 4.0 mi SSE 15.0 mph - N/A   Overcast
5:53 AM 48.0 °F - 46.0 °F 93% 29.67 in 3.0 mi SSE 15.0 mph 21.9 mph N/A   Overcast
6:53 AM 48.9 °F - 46.9 °F 93% 29.64 in 4.0 mi SSE 11.5 mph - N/A   Overcast
7:53 AM 50.0 °F - 48.9 °F 96% 29.62 in 2.5 mi South 9.2 mph - N/A   Overcast
8:12 AM 51.8 °F - 50.0 °F 94% 29.60 in 1.8 mi SSE 11.5 mph - N/A   Overcast
8:24 AM 51.8 °F - 50.0 °F 94% 29.60 in 1.2 mi SSE 11.5 mph - N/A   Overcast
8:35 AM 51.8 °F - 50.0 °F 94% 29.61 in 1.5 mi South 13.8 mph 18.4 mph N/A   Overcast
8:48 AM 53.6 °F - 51.8 °F 94% 29.60 in 2.0 mi SSE 20.7 mph 26.5 mph N/A   Overcast
8:53 AM 53.6 °F - 51.8 °F 94% 29.60 in 2.0 mi South 17.3 mph 26.5 mph N/A   Overcast
9:00 AM 53.6 °F - 51.8 °F 94% 29.60 in 1.8 mi South 17.3 mph 23.0 mph N/A   Overcast
9:16 AM 51.8 °F - 51.8 °F 100% 29.59 in 1.2 mi SSE 12.7 mph - N/A   Overcast
9:45 AM 51.8 °F - 51.8 °F 100% 29.58 in 1.0 mi SSE 9.2 mph - N/A   Overcast
9:53 AM 52.0 °F - 51.1 °F 97% 29.58 in 1.2 mi SSE 9.2 mph - N/A   Overcast
10:00 AM 51.8 °F - 51.8 °F 100% 29.57 in 1.5 mi SSE 11.5 mph - N/A   Overcast
10:14 AM 53.6 °F - 51.8 °F 94% 29.57 in 2.5 mi South 11.5 mph - N/A   Overcast
10:24 AM 53.6 °F - 51.8 °F 94% 29.57 in 3.0 mi South 9.2 mph - N/A   Overcast
10:53 AM 54.0 °F - 52.0 °F 93% 29.57 in 2.5 mi South 9.2 mph - N/A   Overcast
11:10 AM 55.4 °F - 53.6 °F 94% 29.56 in 1.5 mi SSW 9.2 mph - 0.00 in Rain Light Rain
11:23 AM 55.4 °F - 53.6 °F 94% 29.55 in 1.2 mi SSW 9.2 mph - 0.00 in Rain Light Rain
11:32 AM 55.4 °F - 53.6 °F 94% 29.56 in 1.5 mi SSW 6.9 mph - 0.01 in Rain Light Rain
11:43 AM 55.4 °F - 53.6 °F 94% 29.56 in 2.5 mi SW 8.1 mph 17.3 mph 0.01 in   Overcast
11:50 AM 55.4 °F - 53.6 °F 94% 29.55 in 3.0 mi SW 9.2 mph 20.7 mph 0.01 in   Overcast
11:53 AM 55.9 °F - 53.1 °F 90% 29.56 in 3.0 mi SW 11.5 mph 20.7 mph 0.01 in   Overcast
12:23 PM 55.4 °F - 51.8 °F 88% 29.56 in 4.0 mi WSW 10.4 mph 18.4 mph N/A   Overcast
12:42 PM 55.4 °F - 50.0 °F 82% 29.57 in 5.0 mi WSW 12.7 mph 20.7 mph N/A   Haze
12:53 PM 55.0 °F - 50.0 °F 83% 29.57 in 5.0 mi WSW 10.4 mph - N/A   Haze
1:01 PM 55.4 °F - 48.2 °F 77% 29.57 in 5.0 mi West 11.5 mph - N/A   Haze
1:53 PM 54.0 °F - 44.1 °F 69% 29.60 in 8.0 mi West 11.5 mph - N/A   Scattered Clouds
2:53 PM 54.0 °F - 42.1 °F 64% 29.64 in 10.0 mi West 11.5 mph - N/A   Scattered Clouds
3:53 PM 53.1 °F - 41.0 °F 64% 29.70 in 10.0 mi West 9.2 mph 21.9 mph N/A   Overcast
4:53 PM 50.0 °F - 39.9 °F 68% 29.75 in 10.0 mi WNW 16.1 mph 25.3 mph N/A   Clear
5:53 PM 48.0 °F - 37.9 °F 68% 29.80 in 10.0 mi West 15.0 mph 20.7 mph N/A   Clear
6:53 PM 46.9 °F - 36.0 °F 66% 29.84 in 10.0 mi West 11.5 mph - N/A   Clear
7:53 PM 44.1 °F 40.8 °F 34.0 °F 68% 29.86 in 10.0 mi West 5.8 mph - N/A   Clear
8:53 PM 42.1 °F 37.7 °F 32.0 °F 67% 29.88 in 10.0 mi West 6.9 mph - N/A   Clear
9:53 PM 43.0 °F 39.5 °F 30.0 °F 60% 29.89 in 10.0 mi West 5.8 mph - N/A   Clear
10:53 PM 39.9 °F - 28.0 °F 63% 29.91 in 10.0 mi Calm Calm - N/A   Clear
11:53 PM 44.1 °F 38.6 °F 28.0 °F 53% 29.93 in 10.0 mi West 10.4 mph - N/A   Clear